Change the Weather History Date:

Friday, February 28, 2014

  Actual Average Record
Temperature  
Mean Temperature 44 °F -  
Max Temperature 59 °F 66 °F 79 °F (1961)
Min Temperature 30 °F 48 °F 19 °F (2002)
Degree Days  
Heating Degree Days 20    
Moisture  
Dew Point 33 °F    
Average Humidity 85    
Maximum Humidity 100    
Minimum Humidity 33    
Precipitation  
Precipitation 0.00 in - - ()
Sea Level Pressure  
Sea Level Pressure 30.07 in    
Wind  
Wind Speed 2 mph (SE)    
Max Wind Speed 13 mph    
Max Gust Speed 17 mph    
Visibility 5 miles    
Events Fog , Rain    
Averages and records for this station are not official NWS values.
T = Trace of Precipitation, MM = Missing Value Source: NWS Daily Summary

Daily Weather History Graph

Daily Weather History Graph

Search for Another Location

Airport or City:

Trip Planner

Search our weather history database for the weather conditions in past years. The results will help you decide how hot, cold, wet, or windy it might be!

Date:

Astronomy

Feb. 28, 2014 Rise Set
Actual Time 6:21 AM CST 5:52 PM CST
Civil Twilight 5:57 AM CST 6:16 PM CST
Nautical Twilight 5:29 AM CST 6:44 PM CST
Astronomical Twilight 5:01 AM CST 7:12 PM CST
Moon 5:35 AM CST (2/28) 5:27 PM CST (2/28)
Length of Visible Light 12h 19m
Length of Day
11h 30m
Waning Crescent, 1% of the Moon is Illuminated
Feb 28
Waning Crescent
Mar 1
New
Mar 8
First Quarter
Mar 16
Full
Mar 23
Last Quarter

Hourly Weather History & Observations

Time (CST) Temp. Windchill Dew Point Humidity Pressure Visibility Wind Dir Wind Speed Gust Speed Precip Events Conditions
12:53 AM 30.9 °F - 30.9 °F 100% 30.05 in 0.2 mi Calm Calm - N/A Fog Light Freezing Fog
1:16 AM 32.0 °F - 30.9 °F 96% 30.04 in 0.2 mi Calm Calm - N/A Fog Fog
1:21 AM 32.0 °F - 30.9 °F 96% 30.04 in 0.5 mi Calm Calm - N/A Fog Fog
1:29 AM 32.0 °F - 30.9 °F 96% 30.04 in 0.2 mi Calm Calm - N/A Fog Fog
1:42 AM 32.0 °F - 30.9 °F 96% 30.04 in 0.2 mi Calm Calm - N/A Fog Fog
1:53 AM 32.0 °F - 30.9 °F 96% 30.04 in 0.2 mi Calm Calm - N/A Fog Fog
2:06 AM 30.9 °F - 30.0 °F 96% 30.04 in 1.5 mi Calm Calm - N/A   Scattered Clouds
2:17 AM 32.0 °F - 30.9 °F 96% 30.04 in 0.2 mi Calm Calm - N/A Fog Fog
2:27 AM 30.9 °F - 30.9 °F 100% 30.04 in 0.5 mi Calm Calm - N/A Fog Light Freezing Fog
2:37 AM 32.0 °F - 30.9 °F 96% 30.04 in 1.2 mi Calm Calm - N/A   Partly Cloudy
2:46 AM 30.9 °F - 30.0 °F 96% 30.04 in 1.0 mi Calm Calm - N/A   Mist
2:48 AM 32.0 °F - 30.2 °F 93% 30.05 in 0.5 mi Calm Calm - N/A Fog Fog
2:53 AM 30.9 °F - 30.9 °F 100% 30.05 in 0.2 mi Calm Calm - N/A Fog Light Freezing Fog
3:17 AM 30.0 °F - 30.0 °F 100% 30.05 in 0.8 mi Calm Calm - N/A   Mist
3:21 AM 30.0 °F - 30.0 °F 100% 30.05 in 1.2 mi Calm Calm - N/A   Partly Cloudy
3:27 AM 30.9 °F - 30.0 °F 96% 30.04 in 0.8 mi Calm Calm - N/A   Mist
3:36 AM 30.9 °F - 30.0 °F 96% 30.04 in 1.5 mi Calm Calm - N/A   Partly Cloudy
3:38 AM 30.9 °F - 30.9 °F 100% 30.04 in 4.0 mi Calm Calm - N/A   Partly Cloudy
3:46 AM 30.9 °F - 30.0 °F 96% 30.04 in 1.5 mi Calm Calm - N/A   Partly Cloudy
3:53 AM 30.9 °F - 30.0 °F 96% 30.04 in 1.0 mi Calm Calm - N/A   Mist
3:56 AM 30.0 °F - 30.0 °F 100% 30.04 in 2.0 mi Calm Calm - N/A   Clear
4:03 AM 30.9 °F - 30.0 °F 96% 30.04 in 5.0 mi Calm Calm - N/A   Clear
4:05 AM 30.9 °F - 30.0 °F 96% 30.04 in 1.5 mi Calm Calm - N/A   Partly Cloudy
4:21 AM 30.0 °F - 30.0 °F 100% 30.04 in 7.0 mi Calm Calm - N/A   Clear
4:25 AM 30.9 °F - 30.0 °F 96% 30.04 in 1.5 mi Calm Calm - N/A   Clear
4:35 AM 30.9 °F - 30.0 °F 96% 30.05 in 4.0 mi Calm Calm - N/A   Clear
4:51 AM 30.2 °F - 30.2 °F 100% 30.06 in 0.8 mi Calm Calm - N/A   Clear
4:53 AM 30.9 °F - 30.0 °F 96% 30.06 in 0.5 mi Calm Calm - N/A Fog Light Freezing Fog
5:03 AM 30.9 °F - 30.0 °F 96% 30.06 in 3.0 mi Calm Calm - N/A   Clear
5:53 AM 30.0 °F - 28.9 °F 96% 30.08 in 9.0 mi Calm Calm - N/A   Clear
6:09 AM 30.0 °F - 28.9 °F 96% 30.08 in 1.5 mi Calm Calm - N/A   Clear
6:24 AM 30.0 °F 26.5 °F 28.9 °F 96% 30.09 in 10.0 mi North 3.5 mph - N/A   Clear
6:53 AM 30.9 °F - 30.9 °F 100% 30.11 in 10.0 mi Calm Calm - N/A   Clear
7:53 AM 39.0 °F 35.7 °F 36.0 °F 89% 30.11 in 10.0 mi ESE 4.6 mph - N/A   Clear
8:53 AM 48.9 °F - 30.9 °F 50% 30.11 in 10.0 mi ESE 9.2 mph - N/A   Clear
9:53 AM 53.1 °F - 25.0 °F 34% 30.14 in 10.0 mi Variable 5.8 mph - 0.00 in   Clear
10:53 AM 55.0 °F - 26.1 °F 33% 30.12 in 10.0 mi SE 8.1 mph - 0.00 in   Clear
11:53 AM 55.9 °F - 30.0 °F 37% 30.12 in 10.0 mi SSE 11.5 mph 17.3 mph 0.00 in   Clear
12:53 PM 57.0 °F - 36.0 °F 45% 30.09 in 10.0 mi SSE 12.7 mph 17.3 mph 0.00 in   Clear
1:53 PM 59.0 °F - 39.0 °F 48% 30.07 in 10.0 mi SE 12.7 mph - 0.00 in Rain Light Rain
2:53 PM 59.0 °F - 41.0 °F 51% 30.06 in 10.0 mi SSE 12.7 mph - 0.00 in   Clear
3:53 PM 57.9 °F - 42.1 °F 56% 30.06 in 10.0 mi SSE 9.2 mph - 0.00 in   Clear
4:53 PM 55.9 °F - 43.0 °F 62% 30.07 in 10.0 mi SE 10.4 mph - N/A   Clear
5:53 PM 54.0 °F - 44.1 °F 69% 30.08 in 10.0 mi ESE 3.5 mph - N/A   Clear
6:53 PM 54.0 °F - 44.1 °F 69% 30.09 in 10.0 mi SE 3.5 mph - N/A   Partly Cloudy
7:53 PM 52.0 °F - 44.1 °F 74% 30.11 in 10.0 mi ESE 4.6 mph - N/A   Partly Cloudy
8:53 PM 52.0 °F - 46.0 °F 80% 30.10 in 10.0 mi ESE 5.8 mph - N/A   Clear
9:53 PM 54.0 °F - 48.0 °F 80% 30.10 in 10.0 mi SE 9.2 mph - N/A   Clear
10:53 PM 54.0 °F - 48.9 °F 83% 30.10 in 10.0 mi SE 10.4 mph - N/A   Clear
11:53 PM 55.0 °F - 51.1 °F 86% 30.10 in 10.0 mi SE 8.1 mph - N/A   Mostly Cloudy